Total_Precipitation_Accumulation
0.24 0.30 0.34 0.38 0.43 0.50 0.51 0.51 0.59 0.77 0.90 0.98 1.01 1.01 0.87 0.87 0.91 0.88 0.86 0.88 0.77 0.74 0.73 0.69 0.69 0.70 0.71 0.72 0.72 0.68 0.63 0.57 0.58 0.63 0.59 0.56 0.57 0.58 0.56 0.53 0.52 0.55 0.57
0.26 0.32 0.38 0.43 0.43 0.47 0.53 0.53 0.53 0.64 0.77 0.82 0.93 1.05 1.00 0.94 1.00 0.97 0.91 0.98 0.85 0.71 0.70 0.70 0.68 0.69 0.69 0.68 0.68 0.70 0.67 0.61 0.58 0.64 0.66 0.60 0.56 0.51 0.46 0.44 0.45 0.50 0.57
0.25 0.31 0.39 0.45 0.48 0.48 0.49 0.51 0.52 0.58 0.71 0.85 0.99 1.13 1.30 1.20 1.11 1.05 0.96 1.03 1.03 0.80 0.68 0.67 0.70 0.70 0.71 0.69 0.63 0.63 0.68 0.67 0.62 0.63 0.80 0.85 0.65 0.50 0.42 0.42 0.42 0.43 0.44
0.28 0.32 0.39 0.45 0.52 0.50 0.49 0.48 0.51 0.57 0.66 0.84 0.96 0.98 1.07 1.09 0.92 0.86 0.91 0.99 1.13 1.00 0.73 0.64 0.65 0.65 0.68 0.69 0.69 0.66 0.67 0.69 0.68 0.66 0.66 0.69 0.68 0.74 0.57 0.36 0.33 0.35 0.38
0.30 0.34 0.38 0.41 0.52 0.53 0.51 0.49 0.53 0.57 0.62 0.78 0.91 0.97 0.98 1.00 1.00 0.91 0.87 0.94 1.04 1.09 0.96 0.74 0.68 0.67 0.66 0.64 0.66 0.69 0.71 0.70 0.68 0.70 0.68 0.65 0.60 0.65 0.82 0.56 0.34 0.32 0.33
0.34 0.36 0.38 0.44 0.53 0.57 0.56 0.53 0.53 0.57 0.59 0.67 0.82 0.92 0.95 1.01 1.08 1.03 0.89 0.86 0.97 1.05 1.06 0.94 0.77 0.72 0.67 0.63 0.64 0.66 0.68 0.70 0.71 0.72 0.72 0.75 0.78 0.71 0.78 0.73 0.46 0.38 0.33
0.35 0.34 0.36 0.42 0.50 0.57 0.55 0.52 0.52 0.58 0.62 0.66 0.71 0.77 0.87 0.96 1.01 1.05 1.00 0.94 0.93 1.01 1.06 1.02 0.88 0.77 0.75 0.71 0.71 0.74 0.72 0.73 0.75 0.75 0.75 0.76 0.77 0.75 0.81 0.89 0.73 0.53 0.40
0.32 0.33 0.30 0.33 0.42 0.52 0.57 0.54 0.49 0.52 0.62 0.69 0.68 0.73 0.81 0.92 0.93 0.95 1.00 0.99 0.94 0.96 1.07 1.09 1.01 0.89 0.87 0.88 0.87 0.88 0.86 0.85 0.83 0.81 0.79 0.83 0.79 0.81 0.88 0.98 1.06 0.92 0.56
0.30 0.29 0.27 0.28 0.32 0.40 0.49 0.58 0.55 0.54 0.55 0.64 0.74 0.74 0.78 0.85 0.87 0.86 0.89 0.90 0.87 0.86 0.92 1.02 1.10 1.10 1.06 1.03 1.06 1.06 1.01 1.01 0.99 0.95 0.91 0.91 0.85 0.83 0.86 0.92 1.10 1.36 1.16
0.32 0.28 0.25 0.27 0.30 0.36 0.40 0.52 0.63 0.62 0.62 0.62 0.72 0.80 0.79 0.83 0.89 0.90 0.86 0.87 0.90 0.90 0.87 0.90 0.95 1.03 1.09 1.09 1.08 1.08 1.09 1.14 1.13 1.13 1.11 1.06 1.02 1.01 1.01 1.02 1.07 1.26 1.46
0.42 0.36 0.28 0.27 0.30 0.39 0.44 0.45 0.58 0.66 0.68 0.65 0.66 0.76 0.83 0.83 0.90 0.97 0.97 0.94 0.96 0.99 0.95 0.92 0.90 0.87 0.93 1.04 1.11 1.11 1.13 1.18 1.15 1.15 1.17 1.15 1.14 1.19 1.20 1.20 1.20 1.23 1.41
0.42 0.39 0.31 0.30 0.34 0.41 0.46 0.47 0.57 0.63 0.70 0.73 0.73 0.75 0.85 0.89 0.92 0.98 1.05 1.04 1.04 1.06 1.03 1.01 0.96 0.87 0.84 0.92 1.02 1.07 1.10 1.15 1.14 1.14 1.18 1.18 1.19 1.23 1.23 1.28 1.28 1.25 1.30
0.38 0.35 0.35 0.36 0.42 0.45 0.46 0.51 0.60 0.63 0.66 0.71 0.80 0.81 0.83 0.91 1.01 1.07 1.10 1.11 1.07 1.10 1.11 1.09 1.07 1.01 0.96 0.99 1.01 1.03 1.06 1.07 1.07 1.07 1.12 1.17 1.25 1.30 1.28 1.28 1.29 1.24 1.19
0.35 0.36 0.38 0.42 0.47 0.50 0.51 0.56 0.62 0.66 0.72 0.74 0.75 0.87 0.94 0.93 0.99 1.07 1.12 1.18 1.16 1.14 1.15 1.14 1.14 1.13 1.14 1.25 1.26 1.16 1.14 1.07 1.04 1.03 1.08 1.15 1.26 1.35 1.43 1.53 1.44 1.35 1.40
0.36 0.41 0.44 0.47 0.54 0.56 0.57 0.64 0.71 0.74 0.83 0.93 0.90 0.88 0.94 0.96 0.94 1.00 1.03 1.10 1.17 1.17 1.13 1.09 1.08 1.12 1.22 1.51 1.55 1.37 1.26 1.18 1.13 1.07 1.06 1.08 1.28 1.51 1.74 1.88 1.81 1.77 1.83
0.40 0.45 0.47 0.51 0.59 0.66 0.74 0.82 0.90 0.92 0.96 1.06 1.07 0.96 0.92 0.93 0.95 0.97 0.99 1.02 1.06 1.07 1.06 1.03 1.02 1.08 1.23 1.66 1.72 1.52 1.29 1.23 1.22 1.19 1.12 1.10 1.20 1.30 1.50 1.73 1.80 1.88 2.01
0.39 0.44 0.48 0.54 0.64 0.76 0.89 1.00 1.00 0.98 1.04 1.08 1.14 1.10 0.97 0.92 0.93 0.92 0.92 0.92 0.93 0.97 0.96 0.96 0.99 0.99 1.16 1.61 1.63 1.45 1.18 1.11 1.12 1.11 1.06 1.06 1.06 1.13 1.06 1.20 1.31 1.40 1.59
0.44 0.49 0.55 0.57 0.65 0.79 0.91 0.98 1.01 1.02 1.08 1.12 1.10 1.06 0.97 0.88 0.89 0.92 0.89 0.81 0.80 0.86 0.90 0.92 0.93 0.91 0.97 1.39 1.60 1.43 1.05 1.00 1.05 1.04 1.04 1.05 1.02 1.03 1.13 1.18 1.19 1.11 1.13
0.46 0.52 0.55 0.56 0.62 0.71 0.82 0.86 0.88 0.90 0.96 1.03 1.02 0.99 0.94 0.89 0.91 0.94 0.90 0.81 0.78 0.79 0.81 0.83 0.88 0.87 0.90 1.19 1.57 1.60 1.16 1.12 1.08 1.07 1.19 1.24 1.15 1.22 1.41 1.49 1.43 1.20 1.03
0.34 0.43 0.50 0.48 0.51 0.61 0.67 0.70 0.74 0.76 0.79 0.85 0.89 0.95 0.90 0.88 0.93 0.95 0.92 0.87 0.84 0.85 0.87 0.86 0.91 0.91 0.86 1.07 1.49 1.77 1.35 1.27 1.15 1.13 1.25 1.57 1.52 1.52 1.57 1.56 1.59 1.53 1.19
0.30 0.33 0.41 0.48 0.53 0.62 0.65 0.67 0.68 0.72 0.72 0.72 0.76 0.87 0.90 0.88 0.90 0.92 0.95 0.94 0.93 0.94 0.96 0.94 0.92 0.92 0.89 0.95 1.25 1.72 1.59 1.40 1.31 1.29 1.33 1.45 1.57 1.56 1.59 1.64 1.60 1.64 1.55
0.29 0.33 0.39 0.50 0.59 0.63 0.62 0.60 0.64 0.67 0.65 0.68 0.71 0.77 0.86 0.86 0.88 0.90 0.88 0.88 0.94 1.00 1.01 1.01 0.98 0.95 0.94 0.95 1.10 1.46 1.69 1.61 1.39 1.34 1.23 1.31 1.49 1.54 1.58 1.54 1.57 1.68 1.70
0.32 0.36 0.40 0.48 0.56 0.58 0.56 0.58 0.62 0.62 0.62 0.65 0.70 0.75 0.83 0.84 0.83 0.83 0.84 0.81 0.82 0.90 0.97 0.99 1.01 0.99 0.95 0.99 1.14 1.23 1.34 1.47 1.37 1.34 1.52 1.50 1.47 1.42 1.35 1.37 1.45 1.43 1.39
0.37 0.38 0.39 0.45 0.50 0.50 0.52 0.59 0.62 0.61 0.59 0.67 0.74 0.78 0.83 0.86 0.83 0.77 0.77 0.78 0.83 0.97 1.06 1.03 1.02 0.98 0.96 1.02 1.20 1.24 1.20 1.28 1.31 1.31 1.42 1.42 1.29 1.18 1.15 1.21 1.24 1.22 1.29
0.45 0.44 0.45 0.48 0.48 0.44 0.45 0.56 0.64 0.65 0.65 0.66 0.73 0.79 0.83 0.85 0.83 0.78 0.78 0.82 0.86 1.07 1.33 1.28 1.24 1.25 1.25 1.32 1.60 1.59 1.47 1.47 1.50 1.52 1.48 1.35 1.20 1.12 1.05 1.02 1.01 1.04 1.17
0.51 0.48 0.46 0.43 0.42 0.40 0.42 0.50 0.58 0.63 0.65 0.66 0.70 0.76 0.85 0.88 0.84 0.79 0.80 0.84 0.85 0.93 0.97 1.02 1.14 1.16 1.33 1.49 1.48 1.41 1.39 1.44 1.49 1.51 1.41 1.22 1.10 1.05 1.00 1.00 1.01 0.99 1.03